Simultaneous Nadir Overpasses (SNOs) Predictions

Prediction of SNOs between GOES-16 and NPP Satellite Orbit:

Table of predicted SNOs for the next 14.0 days since TLE Epoch: 11/4/2023
Index Date Time (GOES-16) GOES-16 Lat,Lon NPP Lat,Lon Distance(km) Time Diff (sec)
1 11/04/2023 18:33:35 -0.02, -75.21 -0.46, -77.25 231.51 80
2 11/05/2023 18:17:30 -0.02, -75.22 0.55, -72.72 285.32 80
3 11/07/2023 06:39:18 0.02, -75.22 0.61, -78.00 315.88 80
4 11/08/2023 06:17:54 0.02, -75.23 -0.40, -73.47 201.34 80
5 11/09/2023 18:39:50 -0.01, -75.26 -0.79, -78.77 400.57 80
6 11/10/2023 18:23:46 -0.02, -75.27 0.23, -74.24 117.20 80
7 11/12/2023 06:45:33 0.01, -75.28 0.98, -79.51 482.44 80
8 11/13/2023 06:24:09 0.02, -75.29 -0.05, -74.98 35.27 80
9 11/15/2023 18:27:20 -0.01, -75.33 -0.10, -75.76 48.58 80
10 11/16/2023 18:11:16 -0.01, -75.35 0.93, -71.24 469.30 80
